Other Surface Observations
Issued by NWS Tucson, AZ

Home | Current Version | Previous Version | Text Only | Print | Product List | Glossary On
Versions: 1 2 3 4 5 6 7 8 9 10 11 12 13 14 15 16 17 18 19 20 21 22 23 24 25 26 27 28 29 30 31 32 33 34 35 36 37 38 39 40 41 42 43 44 45 46 47 48 49 50
000
SXUS55 KTWC 211215
OSOTWC

WEATHER ROUNDUP FOR SOUTHEAST ARIZONA
NATIONAL WEATHER SERVICE TUCSON AZ
515 AM MST SUN JAN 21 2018

AZZ504>506-514-211315-
LOCATION       SKY/WX    TMP DP  RH WIND       PRES   REMARKS
TUCSON         CLEAR     40  26  57 W9        30.11S WCI  34
DAVIS-MONTHAN  CLEAR     34  27  75 W7        30.10R WCI  27
CHILDRENS PARK N/A      N/A N/A  71 NW2               PIMA CO DEQ
ALVERNON/22ND  N/A       41 N/A N/A W4                PIMA CO DEQ
CHERRY/GLENN   N/A      N/A N/A N/A N/A               PIMA CO DEQ
TANGERINE      N/A       33 N/A N/A W2                PIMA CO DEQ
CONTL RANCH    N/A       40  27  59 NW2               PIMA CO DEQ
GRANT/1ST      N/A       40  30  68 NW2               PIMA CO DEQ
CRAYCROFT/22ND N/A       39  30  69 W2                PIMA CO DEQ
GOLFLINKS/KOLB N/A      N/A N/A N/A N/A               PIMA CO DEQ
AJO/12TH       N/A       40  29  64 SW5               PIMA CO DEQ
FAIRGROUNDS    N/A       36 N/A N/A N30               PIMA CO DEQ
SAGUARO        N/A       35  29  78 CALM              *SABINO CYN
SAN CARLOS     N/A       38  29  70 SW3               *SAN CARLOS
GREEN VALLEY   N/A       39  21  49 W5                PIMA CO DEQ
HORSE CAMP CYN N/A       35  25  67 W11G15            *ARAVAIPA CYN
RINCON MTNS    N/A       19  18  94 W8G20             *NR MANNING CAMP
$$

AZZ509>511-211315-
LOCATION       SKY/WX    TMP DP  RH WIND       PRES   REMARKS
SAFFORD        PTCLDY    37  26  64 NW8       30.03R WCI  31
STRAY HORSE    N/A       20  18  91 W11G27            *
TRAIL CABIN    N/A       26  24  92 W3G17             *N OF GRANVILLE
BLACK HILLS    NOT AVBL
DRY LAKE       N/A       22  21  96 W6G14             *NATANES MTNS
NOON CREEK     N/A       36  13  39 SW10G20           *PINALENO MTNS
COLUMBINE      N/A       13  12  94 W3G14             *PINALENO MTNS
GUTHRIE        N/A       26  22  86 W19G38            *SW OF GUTHRIE
$$

AZZ502-503-513-211315-
LOCATION       SKY/WX    TMP DP  RH WIND       PRES   REMARKS
NOGALES        CLEAR     30  23  75 E8        30.09S WCI  22
SELLS          N/A       34  27  76 E4                *
SASABE         N/A       28  24  84 SW5               *ALTAR VLY
HOPKINS        N/A       23  16  74 W16G23            *SANTA RITA MTNS
CARR CYN       N/A       31  18  58 CALM              *W OF HEREFORD
$$

AZZ507-508-512-211315-
LOCATION       SKY/WX    TMP DP  RH WIND       PRES   REMARKS
SIERRA VISTA   CLEAR     29  22  73 W8        30.07S WCI  22
DOUGLAS        CLEAR     35  23  61 CALM      30.09R
EMPIRE MTNS    NOT AVBL
MULESHOE RANCH N/A       33  25  72 W3G11             *PRESERVE
HEADQUARTERS   N/A       32  23  69 W5G13             *CHIRICAHUA MTNS
$$

.............................NOTES.............................
THIS IS AN AUTOMATED COLLECTIVE WITH MINIMAL QUALITY CONTROL.
PIMA CO DEQ SITES HAVE NONSTANDARD WIND SENSOR HEIGHTS.
PIMA CO DEQ SITES DO NOT REPORT WIND GUSTS.
* INDICATES WIND SENSORS LOCATED AT 20 FEET INSTEAD OF 33 FEET.
..............................KEY..............................
SKY/WX - SKY CONDITION/WEATHER
TMP    - TEMPERATURE IN FAHRENHEIT
DP     - DEWPOINT IN FAHRENHEIT
RH     - RELATIVE HUMIDITY IN PERCENT
WIND   - DIRECTION AND SPEED IN MILES PER HOUR (MPH)
VRB    - VARIABLE WIND DIRECTION
PRES   - MEAN SEA LEVEL PRESSURE IN INCHES OF MERCURY
         F - FALLING PRESSURE   R - RISING PRESSURE
         S - STEADY PRESSURE
VSB    - VISIBILITY IN MILES
HX     - HEAT INDEX IN FAHRENHEIT
WCI    - WIND CHILL INDEX IN FAHRENHEIT
N/A    - NOT AVAILABLE
AFB    - AIR FORCE BASE
         DAVIS-MONTHAN IS DAVIS-MONTHAN AIR FORCE BASE
CYN    - CANYON
MTNS   - MOUNTAINS
NCA    - NATIONAL CONSERVATION AREA
NR     - NEAR
VLY    - VALLEY
CONTL  - CONTINENTAL
PIMA CO DEQ - PIMA COUNTY DEPT OF ENVIRONMENTAL QUALITY



USA.gov is the U.S. government's official web portal to all federal, state and local government web resources and services.